SCP
0 0 0 0 0 0 0 0 0 0 -0 -0 0 0 0 0 0 -0 -0 -0 -0 -0 -0 -0 -0 0 -0 -0 0 0 -0 -0 -0 0 0 -0 -0 -0 0 0 -0 -0 -0
0 0 0 0 0 0 0 0 0 0 -0 -0 0 0 0 0 0 -0 -0 -0 -0 -0 -0 -0 -0 0 0 0 0 -0 0 0 -0 -0 -0 -0 -0 -0 -0 -0 -0 -0 -0
0 0 0 0 0 0 0 0 0 0 -0 0 0 -0 0 0 -0 -0 -0 -0 -0 -0 -0 -0 0 0 0 0 -0 0 0 -0 0 0 -0 -0 -0 0 -0 -0 -0 -0 -0
-0 0 0 0 0 0 0 0 0 0 0 0 0 0 0 -0 -0 -0 -0 -0 -0 -0 -0 -0 0 0 0 0 0 0 0 0 0 -0 -0 0 0 0 -0 -0 -0 -0 -0
0 0 0 0 0 0 0 -0 0 0 0 0 0 0 -0 -0 -0 -0 0 0 -0 -0 -0 0 -0 0 0 0 0 0 0 0 -0 -0 -0 0 0 0 -0 -0 -0 -0 -0
0 0 0 -0 -0 0 0 0 -0 -0 0 0 -0 -0 -0 -0 -0 -0 0 -0 -0 0 0 0 0 0 0 0 0 0 0 0 -0 -0 -0 0 -0 0 0 -0 -0 -0 -0
0 0 0 -0 -0 0 0 -0 -0 -0 -0 0 -0 -0 -0 -0 -0 -0 -0 0 -0 0 0 0 0 0 0 0 0 0 0 -0 0 -0 0 -0 0 0 -0 -0 -0 -0 -0
0 -0 -0 0 -0 -0 -0 -0 0 -0 0 0 0 0 -0 -0 -0 -0 0 0 0 0 0 0 0 0 0 0 0 0 0 -0 0 -0 -0 -0 0 -0 -0 -0 -0 -0 -0
-0 0 0 0 -0 -0 -0 -0 0 -0 0 0 0 -0 -0 0 0 -0 -0 0 0 0 -0 -0 -0 -0 0 0 0 0 0 -0 0 -0 0 -0 -0 -0 -0 -0 -0 -0 -0
-0 0 0 0 0 -0 -0 -0 -0 0 -0 0 -0 -0 -0 -0 -0 -0 -0 0 0 0 0 -0 -0 -0 0 0 0 -0 -0 -0 -0 -0 0 -0 -0 -0 -0 -0 0 -0 -0
0 -0 -0 -0 -0 -0 -0 -0 -0 -0 -0 -0 -0 -0 -0 -0 -0 -0 -0 -0 -0 0 0 -0 -0 -0 -0 -0 -0 0 0 -0 -0 0 0 -0 -0 -0 -0 -0 -0 0 -0
0 0 0 -0 -0 -0 -0 -0 -0 -0 -0 -0 -0 -0 -0 -0 0 -0 -0 -0 -0 -0 -0 -0 -0 -0 -0 0 0 0 0 -0 -0 0 0 -0 -0 -0 -0 -0 -0 -0 0
-0 0 0 0 -0 -0 -0 -0 -0 -0 -0 -0 -0 -0 -0 -0 -0 0 0 0 -0 -0 0 -0 0 0 0 0 -0 0 0 -0 0 0 -0 -0 -0 -0 0 -0 -0 -0 -0
-0 -0 -0 -0 -0 0 0 0 0 0 0 -0 -0 0 -0 -0 0 0 0 0 0 0 -0 -0 0 0 0 0 0 -0 -0 -0 -0 0 0 -0 -0 -0 -0 -0 -0 -0 -0
-0 -0 -0 -0 0 0 0 0 0 0 0 0 -0 -0 0 0 0 0 0 0 0 0 0 0 0 0 0 0 0 -0 -0 -0 -0 0 0 -0 0 0 -0 -0 -0 -0 -0
-0 -0 -0 -0 -0 0 0 0 0 0 0 0 -0 -0 -0 0 0 0 0 -0 0 0 0 0 -0 0 0 -0 -0 -0 0 -0 -0 -0 0 0 0 0 0 -0 -0 -0 -0
-0 -0 -0 -0 -0 -0 -0 0 0 -0 -0 -0 -0 0 -0 0 0 0 -0 -0 0 0 -0 -0 -0 0 0 0 -0 0 0 0 0 0 -0 0 0 0 0 0 0 -0 -0
-0 -0 0 -0 -1 -0 -0 -0 0 0 -0 -0 -0 -0 0 0 0 0 0 -0 -0 0 -0 0 -0 0 0 0 0 0 0 0 0 0 0 0 0 0 0 0 0 -0 -0
-0 -0 -0 -0 -0 -1 -1 -0 0 -0 -0 -0 -0 -0 0 0 -0 -0 -0 0 -0 0 -0 -0 0 0 0 0 0 0 0 0 -0 0 -0 0 0 0 0 0 -0 0 -0
-0 -0 -0 -0 -0 -0 -0 0 0 -0 0 -0 0 0 0 0 0 0 -0 -0 0 -0 -0 0 0 0 0 0 0 0 0 0 -0 0 0 0 0 0 0 0 0 0 -0
-0 -0 -1 -0 -1 0 0 0 0 -0 -0 -0 0 0 0 0 0 -0 -0 -0 -0 -0 -0 0 0 0 0 -0 -0 -0 0 0 0 0 0 0 0 0 0 0 0 0 0
-0 -0 -0 -0 -1 -0 -0 0 -0 0 -0 0 0 0 0 0 0 -0 0 -0 0 0 0 0 0 0 0 0 0 -0 0 0 0 0 0 0 0 0 0 0 0 0 0
0 -0 -0 -0 -0 -0 -0 0 0 -0 0 0 0 0 0 -0 0 0 -0 0 0 -0 0 0 0 0 0 0 0 0 0 0 -0 0 0 0 0 0 0 -0 0 0 0
-0 -0 -0 -0 -0 -0 -0 -0 0 0 0 0 0 0 -0 -0 -0 0 -0 -0 -0 -0 0 0 0 0 0 0 -0 0 0 0 -0 0 0 0 0 0 0 0 0 0 0
-1 -0 -0 -1 -1 -0 -0 -0 -0 0 0 0 0 0 0 -0 -0 -0 -0 -0 -0 0 0 0 0 0 0 0 0 0 0 0 0 0 0 0 0 0 0 0 0 0 0
-1 -1 -1 -1 -1 -1 -0 -0 -0 -0 0 0 0 0 0 -0 -0 -0 -0 0 0 0 0 0 0 0 0 0 0 0 0 0 0 0 0 0 0 0 0 0 0 0 0
Wind_Speed_500mb
37 32 30 34 35 39 40 42 43 42 41 38 35 34 31 28 27 25 24 19 14 13 15 13 12 12 10 12 12 13 22 26 26 27 30 31 32 31 36 36 19 25 30
31 31 31 34 31 34 34 36 36 34 33 29 25 26 25 25 22 21 19 12 13 12 11 8 9 7 9 12 17 21 28 26 24 25 26 28 27 29 28 30 22 22 27
30 31 32 32 30 33 34 34 33 31 29 25 22 24 25 21 18 16 17 17 11 8 5 6 7 7 12 16 21 15 21 23 19 22 27 24 20 21 24 22 16 22 25
29 27 30 34 30 33 32 31 25 23 24 21 19 18 18 18 15 15 15 13 9 7 6 6 7 9 14 17 21 22 22 20 20 13 16 25 19 18 21 19 21 23 24
23 21 30 32 32 31 28 23 21 18 15 13 15 16 19 19 16 14 14 9 7 9 11 12 11 12 15 19 19 20 21 21 15 15 26 47 18 14 20 21 23 27 24
37 24 31 31 30 27 24 21 17 13 11 12 13 17 19 17 15 13 11 9 10 12 12 12 14 13 16 18 16 15 21 18 13 7 4 37 26 18 20 19 20 20 19
37 25 35 32 29 26 20 17 15 13 8 11 12 12 14 11 10 11 12 12 12 13 12 12 13 11 11 14 13 13 15 17 14 11 34 30 22 20 17 17 15 16 17
33 30 32 33 30 26 21 16 15 16 11 12 13 14 11 13 11 10 10 10 12 11 10 10 11 11 12 11 11 10 7 16 12 7 17 26 21 12 15 16 17 16 17
27 29 30 29 27 25 20 16 15 16 16 14 15 13 13 13 10 9 10 9 11 12 11 11 10 11 12 11 10 14 22 21 15 2 25 22 16 13 17 16 16 16 16
41 21 18 20 25 21 19 15 12 11 12 10 10 11 13 11 10 6 8 10 13 13 13 9 9 11 11 12 15 18 27 21 13 7 18 11 7 11 13 15 13 15 16
44 30 32 20 17 18 10 10 10 9 8 8 8 10 11 12 6 7 7 5 12 15 16 10 6 8 10 13 16 12 7 10 13 3 13 11 7 8 9 12 13 14 15
30 43 36 32 22 15 24 11 2 11 8 5 5 5 1 9 8 5 4 8 17 15 16 17 13 9 8 7 9 8 7 5 4 6 6 5 1 6 7 7 6 11 13
30 40 36 32 34 28 31 11 7 4 4 6 7 5 6 7 6 5 12 11 15 17 15 13 15 17 13 9 2 9 13 11 14 7 15 6 6 2 5 5 7 6 8
38 35 39 44 33 22 19 17 20 5 10 24 11 7 10 7 13 15 11 5 7 6 8 6 5 8 14 24 14 22 21 11 12 10 13 17 12 14 14 7 7 3 9
35 36 38 38 39 33 19 18 8 9 8 7 13 9 7 14 18 21 12 12 15 20 22 16 19 21 20 18 19 19 21 27 25 12 10 12 12 14 20 23 15 14 11
37 38 35 31 30 38 29 24 24 14 22 20 21 18 16 17 21 24 22 22 21 20 23 24 29 29 26 29 25 25 25 22 26 24 8 21 24 23 22 29 27 22 21
41 45 40 31 32 26 28 30 23 24 13 17 19 26 4 14 19 23 24 28 24 28 24 24 26 29 25 20 18 22 20 17 17 27 36 35 41 47 36 31 30 26 25
38 46 36 34 35 26 27 24 27 22 19 16 16 7 12 9 3 8 18 20 22 23 21 21 17 20 19 16 18 17 18 21 21 18 20 18 26 34 30 32 36 31 34
41 41 42 35 41 32 33 26 24 35 27 22 23 11 4 4 5 6 7 15 19 19 16 14 16 15 14 12 14 7 5 10 9 6 12 21 21 25 30 36 35 40 41
47 38 45 38 41 38 35 29 30 19 12 17 13 17 15 13 7 9 6 5 7 3 3 7 9 10 5 8 9 20 23 29 21 9 12 22 12 18 23 26 29 33 37
44 44 36 39 45 38 37 23 20 17 15 17 19 22 15 16 12 22 13 3 5 7 8 17 12 9 9 13 12 15 21 28 17 16 9 10 10 17 14 13 31 31 24
44 49 48 41 40 36 24 13 22 23 27 24 27 21 16 13 14 15 15 12 7 15 13 6 7 8 4 11 13 18 11 8 18 17 12 9 11 12 6 17 17 20 18
49 53 51 52 45 46 35 36 25 24 28 32 29 20 18 17 17 17 6 12 13 12 10 10 7 7 8 6 10 8 7 3 25 15 17 6 11 17 14 24 15 16 18
56 50 49 52 55 50 46 40 35 29 32 30 29 27 25 17 16 13 11 11 8 9 9 5 6 9 7 6 9 9 15 14 7 3 13 17 10 5 4 8 3 12 12
56 58 54 56 56 50 53 41 37 32 25 29 28 31 30 27 22 17 10 12 7 8 9 12 14 13 6 6 9 6 3 9 15 18 20 10 7 21 24 11 9 13 20
63 59 60 61 58 56 50 52 38 35 29 24 25 21 14 18 24 16 14 11 11 11 7 10 12 16 10 15 20 4 8 8 15 10 10 10 11 4 4 16 16 15 12
Wind_Direction_500mb
126 128 130 129 127 123 122 122 121 121 120 121 124 127 128 129 130 135 134 123 105 111 119 117 107 99 86 83 101 126 117 119 116 119 126 121 107 105 98 91 82 95 100
137 132 139 126 130 134 131 128 125 124 123 128 137 138 136 134 136 140 143 140 114 124 125 104 100 102 98 103 101 110 123 115 129 128 118 107 111 112 110 117 143 100 102
126 141 138 130 135 136 136 130 124 125 125 130 144 141 139 138 136 140 138 138 121 121 123 118 97 101 119 118 111 118 125 123 120 116 112 93 95 118 124 122 109 110 108
133 142 142 128 138 147 143 137 137 135 132 141 149 148 154 158 154 147 146 142 117 109 97 127 118 113 125 129 115 108 115 117 118 141 126 117 105 111 116 120 108 108 108
149 165 138 137 136 139 145 146 145 137 134 138 146 146 155 155 148 144 147 144 118 102 93 111 112 108 119 134 127 108 105 112 116 86 118 150 138 109 107 108 105 112 105
170 161 153 150 146 143 143 150 140 138 140 144 138 141 139 147 150 148 156 137 121 103 108 114 119 120 125 127 132 118 111 107 85 192 148 195 156 110 115 113 111 119 112
159 159 153 154 151 148 148 149 145 138 136 137 140 147 138 142 146 143 140 132 120 123 120 112 123 133 127 127 130 124 129 108 77 99 81 106 111 102 122 124 119 121 121
150 151 152 155 152 148 152 155 154 149 139 127 126 132 149 135 137 142 146 142 141 141 134 132 135 136 133 122 112 113 137 134 91 350 94 77 73 117 125 132 124 122 126
153 157 161 160 157 156 159 162 155 150 156 148 151 143 143 130 124 145 157 168 160 146 138 133 141 137 133 114 90 97 109 106 103 232 107 86 81 116 135 130 117 129 129
154 138 129 166 158 158 161 160 148 158 160 159 145 139 139 117 76 116 162 174 169 163 150 159 147 135 132 106 81 83 111 100 110 138 87 40 103 144 129 133 129 137 135
181 163 161 172 157 142 157 158 159 148 142 151 148 141 139 142 105 17 116 233 202 177 164 175 154 129 136 119 107 115 116 151 194 236 148 52 100 118 121 137 134 135 142
172 160 174 179 172 157 190 156 167 147 130 142 139 87 57 240 108 39 85 297 224 196 188 201 196 184 170 154 129 124 160 140 174 166 301 290 349 89 131 144 143 157 153
184 190 193 184 186 176 182 245 173 206 285 166 236 146 226 234 338 288 288 346 199 205 205 211 225 231 229 228 173 256 261 175 309 224 310 300 276 302 125 158 178 177 166
188 197 198 188 183 183 194 192 229 221 177 196 226 185 182 184 192 254 256 147 176 200 244 252 303 275 281 267 256 250 235 241 235 262 261 275 267 273 277 233 215 200 212
183 198 184 171 179 175 170 177 186 216 188 164 237 233 222 213 214 214 194 191 188 205 215 227 235 226 253 256 253 255 250 236 222 217 285 254 246 274 273 260 245 225 227
183 189 173 187 220 217 220 198 217 206 206 211 217 242 236 243 231 232 224 197 219 219 215 220 221 232 261 252 257 272 289 276 240 216 169 226 250 256 257 254 248 235 228
186 189 194 194 203 207 212 189 205 191 196 208 238 207 277 289 250 230 222 213 218 230 235 241 242 249 260 277 269 250 263 278 268 230 225 249 260 264 259 255 248 240 225
195 192 197 189 199 209 205 213 192 227 197 216 239 148 304 355 98 186 201 208 212 222 234 246 253 253 266 267 278 291 250 257 287 264 275 270 271 269 265 266 235 232 235
183 188 188 199 194 206 200 212 206 216 200 215 232 174 289 25 320 128 157 204 220 231 235 246 258 261 271 269 272 266 254 224 285 280 282 281 289 283 276 280 243 238 244
181 189 188 186 202 209 203 211 217 240 197 207 179 224 237 226 216 128 158 184 202 113 59 241 255 255 285 274 301 279 274 256 252 277 273 255 274 325 284 268 277 262 261
180 180 191 187 199 199 205 213 220 215 198 192 200 225 215 237 177 185 173 266 161 188 183 249 231 241 258 248 282 299 283 238 271 251 251 316 238 284 303 287 281 292 267
187 190 193 188 198 187 201 202 199 199 200 205 198 223 213 196 190 166 189 195 212 241 237 252 260 257 270 215 258 311 308 296 310 165 189 268 297 285 235 249 331 333 316
193 191 197 195 206 211 185 200 218 195 196 207 216 218 198 192 177 187 184 205 220 246 252 244 239 269 285 285 311 296 350 358 337 231 211 236 337 293 291 223 330 287 310
194 193 199 205 205 219 185 207 198 194 208 213 223 202 190 190 199 192 203 212 214 221 233 226 308 264 291 311 357 329 321 302 1 349 287 283 274 283 199 85 33 259 316
194 196 200 209 211 213 195 206 208 187 212 211 217 221 218 225 226 203 217 217 229 232 225 246 255 268 260 281 272 358 273 303 297 270 297 2 134 153 181 224 282 305 304
193 194 198 210 215 214 208 202 212 196 198 211 192 224 216 216 198 189 219 210 210 231 225 240 269 283 274 244 237 239 301 296 279 327 316 281 327 231 283 298 301 274 295
Wind_Speed_850mb
37 32 30 34 35 39 40 42 43 42 41 38 35 34 31 28 27 25 24 19 14 13 15 13 12 12 10 12 12 13 22 26 26 27 30 31 32 31 36 36 19 25 30
31 31 31 34 31 34 34 36 36 34 33 29 25 26 25 25 22 21 19 12 13 12 11 8 9 7 9 12 17 21 28 26 24 25 26 28 27 29 28 30 22 22 27
30 31 32 32 30 33 34 34 33 31 29 25 22 24 25 21 18 16 17 17 11 8 5 6 7 7 12 16 21 15 21 23 19 22 27 24 20 21 24 22 16 22 25
29 27 30 34 30 33 32 31 25 23 24 21 19 18 18 18 15 15 15 13 9 7 6 6 7 9 14 17 21 22 22 20 20 13 16 25 19 18 21 19 21 23 24
23 21 30 32 32 31 28 23 21 18 15 13 15 16 19 19 16 14 14 9 7 9 11 12 11 12 15 19 19 20 21 21 15 15 26 47 18 14 20 21 23 27 24
37 24 31 31 30 27 24 21 17 13 11 12 13 17 19 17 15 13 11 9 10 12 12 12 14 13 16 18 16 15 21 18 13 7 4 37 26 18 20 19 20 20 19
37 25 35 32 29 26 20 17 15 13 8 11 12 12 14 11 10 11 12 12 12 13 12 12 13 11 11 14 13 13 15 17 14 11 34 30 22 20 17 17 15 16 17
33 30 32 33 30 26 21 16 15 16 11 12 13 14 11 13 11 10 10 10 12 11 10 10 11 11 12 11 11 10 7 16 12 7 17 26 21 12 15 16 17 16 17
27 29 30 29 27 25 20 16 15 16 16 14 15 13 13 13 10 9 10 9 11 12 11 11 10 11 12 11 10 14 22 21 15 2 25 22 16 13 17 16 16 16 16
41 21 18 20 25 21 19 15 12 11 12 10 10 11 13 11 10 6 8 10 13 13 13 9 9 11 11 12 15 18 27 21 13 7 18 11 7 11 13 15 13 15 16
44 30 32 20 17 18 10 10 10 9 8 8 8 10 11 12 6 7 7 5 12 15 16 10 6 8 10 13 16 12 7 10 13 3 13 11 7 8 9 12 13 14 15
30 43 36 32 22 15 24 11 2 11 8 5 5 5 1 9 8 5 4 8 17 15 16 17 13 9 8 7 9 8 7 5 4 6 6 5 1 6 7 7 6 11 13
30 40 36 32 34 28 31 11 7 4 4 6 7 5 6 7 6 5 12 11 15 17 15 13 15 17 13 9 2 9 13 11 14 7 15 6 6 2 5 5 7 6 8
38 35 39 44 33 22 19 17 20 5 10 24 11 7 10 7 13 15 11 5 7 6 8 6 5 8 14 24 14 22 21 11 12 10 13 17 12 14 14 7 7 3 9
35 36 38 38 39 33 19 18 8 9 8 7 13 9 7 14 18 21 12 12 15 20 22 16 19 21 20 18 19 19 21 27 25 12 10 12 12 14 20 23 15 14 11
37 38 35 31 30 38 29 24 24 14 22 20 21 18 16 17 21 24 22 22 21 20 23 24 29 29 26 29 25 25 25 22 26 24 8 21 24 23 22 29 27 22 21
41 45 40 31 32 26 28 30 23 24 13 17 19 26 4 14 19 23 24 28 24 28 24 24 26 29 25 20 18 22 20 17 17 27 36 35 41 47 36 31 30 26 25
38 46 36 34 35 26 27 24 27 22 19 16 16 7 12 9 3 8 18 20 22 23 21 21 17 20 19 16 18 17 18 21 21 18 20 18 26 34 30 32 36 31 34
41 41 42 35 41 32 33 26 24 35 27 22 23 11 4 4 5 6 7 15 19 19 16 14 16 15 14 12 14 7 5 10 9 6 12 21 21 25 30 36 35 40 41
47 38 45 38 41 38 35 29 30 19 12 17 13 17 15 13 7 9 6 5 7 3 3 7 9 10 5 8 9 20 23 29 21 9 12 22 12 18 23 26 29 33 37
44 44 36 39 45 38 37 23 20 17 15 17 19 22 15 16 12 22 13 3 5 7 8 17 12 9 9 13 12 15 21 28 17 16 9 10 10 17 14 13 31 31 24
44 49 48 41 40 36 24 13 22 23 27 24 27 21 16 13 14 15 15 12 7 15 13 6 7 8 4 11 13 18 11 8 18 17 12 9 11 12 6 17 17 20 18
49 53 51 52 45 46 35 36 25 24 28 32 29 20 18 17 17 17 6 12 13 12 10 10 7 7 8 6 10 8 7 3 25 15 17 6 11 17 14 24 15 16 18
56 50 49 52 55 50 46 40 35 29 32 30 29 27 25 17 16 13 11 11 8 9 9 5 6 9 7 6 9 9 15 14 7 3 13 17 10 5 4 8 3 12 12
56 58 54 56 56 50 53 41 37 32 25 29 28 31 30 27 22 17 10 12 7 8 9 12 14 13 6 6 9 6 3 9 15 18 20 10 7 21 24 11 9 13 20
63 59 60 61 58 56 50 52 38 35 29 24 25 21 14 18 24 16 14 11 11 11 7 10 12 16 10 15 20 4 8 8 15 10 10 10 11 4 4 16 16 15 12
Wind_Direction_850mb
126 128 130 129 127 123 122 122 121 121 120 121 124 127 128 129 130 135 134 123 105 111 119 117 107 99 86 83 101 126 117 119 116 119 126 121 107 105 98 91 82 95 100
137 132 139 126 130 134 131 128 125 124 123 128 137 138 136 134 136 140 143 140 114 124 125 104 100 102 98 103 101 110 123 115 129 128 118 107 111 112 110 117 143 100 102
126 141 138 130 135 136 136 130 124 125 125 130 144 141 139 138 136 140 138 138 121 121 123 118 97 101 119 118 111 118 125 123 120 116 112 93 95 118 124 122 109 110 108
133 142 142 128 138 147 143 137 137 135 132 141 149 148 154 158 154 147 146 142 117 109 97 127 118 113 125 129 115 108 115 117 118 141 126 117 105 111 116 120 108 108 108
149 165 138 137 136 139 145 146 145 137 134 138 146 146 155 155 148 144 147 144 118 102 93 111 112 108 119 134 127 108 105 112 116 86 118 150 138 109 107 108 105 112 105
170 161 153 150 146 143 143 150 140 138 140 144 138 141 139 147 150 148 156 137 121 103 108 114 119 120 125 127 132 118 111 107 85 192 148 195 156 110 115 113 111 119 112
159 159 153 154 151 148 148 149 145 138 136 137 140 147 138 142 146 143 140 132 120 123 120 112 123 133 127 127 130 124 129 108 77 99 81 106 111 102 122 124 119 121 121
150 151 152 155 152 148 152 155 154 149 139 127 126 132 149 135 137 142 146 142 141 141 134 132 135 136 133 122 112 113 137 134 91 350 94 77 73 117 125 132 124 122 126
153 157 161 160 157 156 159 162 155 150 156 148 151 143 143 130 124 145 157 168 160 146 138 133 141 137 133 114 90 97 109 106 103 232 107 86 81 116 135 130 117 129 129
154 138 129 166 158 158 161 160 148 158 160 159 145 139 139 117 76 116 162 174 169 163 150 159 147 135 132 106 81 83 111 100 110 138 87 40 103 144 129 133 129 137 135
181 163 161 172 157 142 157 158 159 148 142 151 148 141 139 142 105 17 116 233 202 177 164 175 154 129 136 119 107 115 116 151 194 236 148 52 100 118 121 137 134 135 142
172 160 174 179 172 157 190 156 167 147 130 142 139 87 57 240 108 39 85 297 224 196 188 201 196 184 170 154 129 124 160 140 174 166 301 290 349 89 131 144 143 157 153
184 190 193 184 186 176 182 245 173 206 285 166 236 146 226 234 338 288 288 346 199 205 205 211 225 231 229 228 173 256 261 175 309 224 310 300 276 302 125 158 178 177 166
188 197 198 188 183 183 194 192 229 221 177 196 226 185 182 184 192 254 256 147 176 200 244 252 303 275 281 267 256 250 235 241 235 262 261 275 267 273 277 233 215 200 212
183 198 184 171 179 175 170 177 186 216 188 164 237 233 222 213 214 214 194 191 188 205 215 227 235 226 253 256 253 255 250 236 222 217 285 254 246 274 273 260 245 225 227
183 189 173 187 220 217 220 198 217 206 206 211 217 242 236 243 231 232 224 197 219 219 215 220 221 232 261 252 257 272 289 276 240 216 169 226 250 256 257 254 248 235 228
186 189 194 194 203 207 212 189 205 191 196 208 238 207 277 289 250 230 222 213 218 230 235 241 242 249 260 277 269 250 263 278 268 230 225 249 260 264 259 255 248 240 225
195 192 197 189 199 209 205 213 192 227 197 216 239 148 304 355 98 186 201 208 212 222 234 246 253 253 266 267 278 291 250 257 287 264 275 270 271 269 265 266 235 232 235
183 188 188 199 194 206 200 212 206 216 200 215 232 174 289 25 320 128 157 204 220 231 235 246 258 261 271 269 272 266 254 224 285 280 282 281 289 283 276 280 243 238 244
181 189 188 186 202 209 203 211 217 240 197 207 179 224 237 226 216 128 158 184 202 113 59 241 255 255 285 274 301 279 274 256 252 277 273 255 274 325 284 268 277 262 261
180 180 191 187 199 199 205 213 220 215 198 192 200 225 215 237 177 185 173 266 161 188 183 249 231 241 258 248 282 299 283 238 271 251 251 316 238 284 303 287 281 292 267
187 190 193 188 198 187 201 202 199 199 200 205 198 223 213 196 190 166 189 195 212 241 237 252 260 257 270 215 258 311 308 296 310 165 189 268 297 285 235 249 331 333 316
193 191 197 195 206 211 185 200 218 195 196 207 216 218 198 192 177 187 184 205 220 246 252 244 239 269 285 285 311 296 350 358 337 231 211 236 337 293 291 223 330 287 310
194 193 199 205 205 219 185 207 198 194 208 213 223 202 190 190 199 192 203 212 214 221 233 226 308 264 291 311 357 329 321 302 1 349 287 283 274 283 199 85 33 259 316
194 196 200 209 211 213 195 206 208 187 212 211 217 221 218 225 226 203 217 217 229 232 225 246 255 268 260 281 272 358 273 303 297 270 297 2 134 153 181 224 282 305 304
193 194 198 210 215 214 208 202 212 196 198 211 192 224 216 216 198 189 219 210 210 231 225 240 269 283 274 244 237 239 301 296 279 327 316 281 327 231 283 298 301 274 295